Find OneWeb SL0133

NORAD ID: 47263 Int'l Des: 2020-100 Owner: ONEWEB Country: UK Constellation: oneweb operational
LEOCIRCULARPOLARONEWEB_TYPE

Live Position

Loading 3D Globe...

About OneWeb SL0133

Description loading...

Upcoming Passes

Passes for default location (London). Set your location on the main map for personalized predictions.

Altitude History

Loading altitude history...

Two-Line Element Set

1 47263U 20100F 26126.36784487 -.00000354 00000-0 -10184-2 0 9999
2 47263 87.8979 358.9625 0001779 81.1256 279.0074 13.12444547259041
Epoch: May 6, 2026 • Age: 17 hours

Current Status

Altitude 1224.1 km
Velocity 7.25 km/s
Sub-Earth Point 65.97°N, 78.92°W
Launch Date Dec 18, 2020
Age 5.3 years
Type internet

Technical Details

Classification Payload
Mass 148.00 kg
Dry Mass 140.00 kg
Total Mass 148.00 kg
Length 1.30 m
Diameter 1.00 m
Span 5.00 m
Shape Trapezoid+2 pan
Manufacturer ONEWUS
Bus Type ARROW
Phase Status In Orbit
Owner/State ONEWEB/UK

Most Searched